Regional Weather Roundup
Issued by NWS

Home | Current Version | Previous Version | Graphics & Text | Print | Product List | Glossary On
Versions: 1 2 3 4 5 6 7 8 9 10 11 12 13 14 15 16 17 18 19 20 21 22 23 24 25 26 27 28 29 30 31 32 33 34 35 36 37 38 39 40 41 42 43 44 45 46 47 48 49 50
712
ASUS43 KDTX 261710
RWRMI
MICHIGAN HOURLY REGIONAL WEATHER ROUNDUP
NATIONAL WEATHER SERVICE DETROIT/PONTIAC MI
100 PM EDT THU APR 26 2018

NOTE: "FAIR" INDICATES FEW OR NO CLOUDS BELOW 12,000 FEET WITH NO
SIGNIFICANT WEATHER AND/OR OBSTRUCTION TO VISIBILITY.

MIZ047>049-052>055-059>063-066>070-074>076-081>083-261800-
SOUTHEAST LOWER MICHIGAN

CITY           SKY/WX    TMP DP  RH WIND       PRES   REMARKS
ADRIAN         FAIR      52  35  52 CALM      29.96S
ALMA           FAIR      57  29  34 NW7       29.93S
ANN ARBOR      FAIR      56  37  49 SW8       29.93S
BAD AXE        FAIR      54  27  34 W6        29.91F
CARO           FAIR      55  30  38 W7        29.92S
DETROIT CITY   FAIR      55  33  43 W7        29.93S
DETROIT        FAIR      55  36  48 VRB3      29.94S
FLINT          FAIR      54  28  36 W8        29.93S
GROSSE ILE     FAIR      50  42  75 S13       29.95S
HILLSDALE      FAIR      54  34  47 CALM      29.93F
HOWELL         FAIR      55  31  41 NW8       29.92F

CITY           SKY/WX    TMP DP  RH WIND       PRES   REMARKS
JACKSON        FAIR      55  36  48 W6        29.93F
LAMBERTVILLE   FAIR      56  38  51 SW3       29.95F
LANSING        FAIR      56  26  31 NW5       29.94S
LAPEER         FAIR      54  29  37 SW3       29.92S
MASON          FAIR      58  26  30 W7        29.93F
MONROE         FAIR      54  37  52 SW7       29.94F
PONTIAC        PTSUNNY   54  34  46 MISG      29.92S
PORT HOPE        N/A     43  35  73 NW10      29.90S
PORT HURON     FAIR      52  34  50 W5        29.93S
TRI CITIES     FAIR      54  25  32 CALM      29.93S
MIDLAND        FAIR      56  27  33 SW7       29.91S
TROY           FAIR      56  33  41 SW5       29.94S
SAGINAW HB     FAIR      54  28  37 SW6       29.92S
$$
MIZ043>046-050>051-056>058-064>065-071>073-077>080-261800-
SOUTHWEST LOWER MICHIGAN

CITY           SKY/WX    TMP DP  RH WIND       PRES   REMARKS
BATTLE CREEK   FAIR      56  29  35 VRB5      29.94F
BENTON HARBOR  FAIR      53  34  48 W8        29.96S
BIG RAPIDS     FAIR      58  20  23 W7        29.91S
COLDWATER      FAIR      55  36  49 CALM      29.95S
FREMONT        FAIR      57  17  21 SW9       29.92S
HOLLAND        FAIR      55  33  43 VRB6      29.95F
GRAND RAPIDS   PTSUNNY   57  28  33 VRB3      29.93F
IONIA          FAIR      57  29  35 CALM      29.92F
KALAMAZOO      FAIR      57  27  31 SW7       29.94F
LUDINGTON      FAIR      51  32  47 SW10      29.93R
MARSHALL       FAIR      56  28  35 CALM      29.93F
MOUNT PLEASANT FAIR      57  29  34 W5        29.91S
MUSKEGON       PTSUNNY   55  28  35 W10       29.95S
SOUTH HAVEN    FAIR      55  33  44 W8        29.95F
$$
MIZ016>042-261800-
NORTHERN LOWER MICHIGAN

CITY           SKY/WX    TMP DP  RH WIND       PRES   REMARKS
ALPENA         FAIR      53  25  33 VRB5      29.88F
BEAVER ISLAND  FAIR      49  31  49 SW16G23   29.87F
BELLAIRE       FAIR      54  27  35 CALM      29.89S
CADILLAC       FAIR      56  27  32 SW7       29.88F
CHARLEVOIX     FAIR      52  29  40 SW12      29.91F
FRANKFORT      FAIR      50  29  44 SW13G20   29.91F
GAYLORD        FAIR      51  25  36 W9        29.87F
HARBOR SPRINGS FAIR      49  26  41 SW8       29.89S
HOUGHTON LAKE  FAIR      53  28  38 W6        29.89F
MANISTEE       FAIR      55  31  39 W14       29.91S
OSCODA         FAIR      52  31  45 E7        29.89S
PELLSTON       FAIR      52  27  38 W12G17    29.88S
ROGERS CITY    FAIR      44  29  55 NE6       29.88F
TRAVERSE CITY  PTSUNNY   58  30  34 W12       29.87F
$$
MIZ007>008-015-261800-
EASTERN UPPER MICHIGAN

CITY           SKY/WX    TMP DP  RH WIND       PRES   REMARKS
KINROSS        FAIR      49  27  42 SW9G17    29.85F
MACKINAC ISLAN FAIR      46  27  48 W9G22     29.88S
NEWBERRY       FAIR      48  28  47 S9        29.83F
MUNISING         N/A     58  26  29 SW9       29.78F
$$
MIZ004>006-011>014-085-261800-
CENTRAL UPPER MICHIGAN

CITY           SKY/WX    TMP DP  RH WIND       PRES   REMARKS
MANISTIQUE     FAIR      42  36  80 S12G17    29.85S
ESCANABA       FAIR      49  33  54 S14       29.83F
MENOMINEE      FAIR      59  36  42 SW14      29.85F
SAWYER-GWINN   SUNNY     55  23  28 SW10      29.78F
$$
MIZ001>003-009>011-084-261800-
WESTERN UPPER MICHIGAN

CITY           SKY/WX    TMP DP  RH WIND       PRES   REMARKS
IRON MOUNTAIN  FAIR      60  21  22 W13G20    29.79F
HOUGHTON       FAIR      52  29  41 W23G30    29.76R
COPPER HARBOR    N/A     50  30  46 N17       29.76R
IRONWOOD       FAIR      56  31  38 W13       29.79S
$$

ABBREVIATIONS USED IN REMARKS
   TC - TEMPERATURE IN CELSIUS
  WCI - WIND CHILL INDEX
   HX - HEAT INDEX
  VSB - VISIBILITY





USA.gov is the U.S. government's official web portal to all federal, state and local government web resources and services.